| time (UTC) | temp F | wind direction | speed MPH | gust MPH | rain 1hr in | rain 24hr in | rain mn in | humidity % | barometer mb |
| 20260502130630 | 80 | 51 | 4.0 | 4.0 | 0.00 | 0.63 | 0.63 | 86 | 1013.2 |
| 20260502130128 | 80 | 87 | 1.0 | 3.0 | 0.00 | 0.63 | 0.63 | 86 | 1013.2 |
| 20260502123613 | 81 | 53 | 5.0 | 5.0 | 0.00 | 0.63 | 0.63 | 85 | 1012.8 |
| 20260502123109 | 81 | 61 | 4.0 | 7.0 | 0.00 | 0.63 | 0.63 | 85 | 1012.8 |
| 20260502122606 | 81 | 56 | 4.0 | 5.0 | 0.00 | 0.63 | 0.63 | 84 | 1012.8 |
| 20260502122103 | 82 | 56 | 7.0 | 10.0 | 0.00 | 0.63 | 0.63 | 82 | 1012.8 |
| 20260502121601 | 82 | 59 | 8.0 | 10.0 | 0.00 | 0.63 | 0.63 | 81 | 1012.5 |
| 20260502121058 | 81 | 45 | 5.0 | 7.0 | 0.00 | 0.63 | 0.63 | 82 | 1012.5 |
| 20260502120554 | 81 | 40 | 5.0 | 6.0 | 0.00 | 0.63 | 0.63 | 82 | 1012.5 |
| 20260502115550 | 81 | 53 | 5.0 | 7.0 | 0.00 | 0.63 | 0.63 | 82 | 1012.5 |
| 20260502115045 | 81 | 55 | 5.0 | 7.0 | 0.00 | 0.63 | 0.63 | 81 | 1012.5 |
| 20260502114542 | 82 | 43 | 5.0 | 6.0 | 0.00 | 0.63 | 0.63 | 81 | 1012.2 |
| 20260502114038 | 82 | 33 | 6.0 | 8.0 | 0.00 | 0.63 | 0.63 | 81 | 1012.2 |
| 20260502113536 | 82 | 37 | 6.0 | 9.0 | 0.00 | 0.63 | 0.63 | 81 | 1012.2 |
| 20260502113035 | 82 | 50 | 7.0 | 9.0 | 0.00 | 0.63 | 0.63 | 81 | 1012.2 |
| 20260502112532 | 82 | 44 | 4.0 | 5.0 | 0.00 | 0.63 | 0.63 | 81 | 1012.2 |
| 20260502112029 | 81 | 46 | 6.0 | 7.0 | 0.00 | 0.63 | 0.63 | 81 | 1012.2 |
| 20260502111527 | 81 | 41 | 4.0 | 5.0 | 0.00 | 0.63 | 0.63 | 81 | 1012.2 |
| 20260502111024 | 82 | 46 | 4.0 | 6.0 | 0.00 | 0.63 | 0.63 | 80 | 1011.8 |
| 20260502110521 | 82 | 46 | 4.0 | 5.0 | 0.00 | 0.63 | 0.63 | 80 | 1011.8 |
| 20260502110019 | 82 | 51 | 5.0 | 6.0 | 0.00 | 0.63 | 0.63 | 79 | 1012.2 |
| 20260502105516 | 82 | 43 | 6.0 | 8.0 | 0.00 | 0.63 | 0.63 | 79 | 1011.8 |
| 20260502105014 | 82 | 31 | 6.0 | 8.0 | 0.00 | 0.63 | 0.63 | 80 | 1011.8 |
| 20260502104510 | 82 | 43 | 6.0 | 8.0 | 0.00 | 0.63 | 0.63 | 80 | 1011.8 |
| 20260502104008 | 82 | 43 | 5.0 | 6.0 | 0.00 | 0.63 | 0.63 | 80 | 1011.8 |
| 20260502103505 | 82 | 40 | 5.0 | 6.0 | 0.00 | 0.63 | 0.63 | 80 | 1011.8 |
| 20260502103003 | 82 | 47 | 5.0 | 6.0 | 0.00 | 0.63 | 0.63 | 80 | 1011.8 |
| 20260502102459 | 82 | 47 | 5.0 | 6.0 | 0.00 | 0.63 | 0.63 | 80 | 1011.8 |
| 20260502101956 | 82 | 47 | 5.0 | 6.0 | 0.00 | 0.63 | 0.63 | 80 | 1011.5 |
| 20260502101454 | 82 | 50 | 4.0 | 6.0 | 0.00 | 0.63 | 0.63 | 80 | 1011.5 |
| 20260502100953 | 82 | 43 | 5.0 | 7.0 | 0.00 | 0.63 | 0.63 | 80 | 1011.5 |
| 20260502100451 | 82 | 38 | 4.0 | 5.0 | 0.00 | 0.63 | 0.63 | 80 | 1011.5 |
| 20260502091425 | 82 | 37 | 6.0 | 7.0 | 0.00 | 0.63 | 0.63 | 79 | 1010.8 |
| 20260502090922 | 82 | 32 | 6.0 | 7.0 | 0.00 | 0.63 | 0.63 | 79 | 1010.8 |
| 20260502090420 | 82 | 12 | 4.0 | 6.0 | 0.00 | 0.63 | 0.63 | 79 | 1010.8 |
| 20260502071314 | 86 | 59 | 10.0 | 13.0 | 0.00 | 0.63 | 0.63 | 70 | 1009.8 |
| 20260502070813 | 86 | 63 | 12.0 | 16.0 | 0.00 | 0.63 | 0.63 | 71 | 1009.8 |
| 20260502070310 | 86 | 57 | 14.0 | 17.0 | 0.00 | 0.63 | 0.63 | 71 | 1009.8 |
| 20260502065809 | 86 | 42 | 13.0 | 19.0 | 0.00 | 0.63 | 0.63 | 71 | 1009.8 |
| 20260502065306 | 86 | 36 | 10.0 | 14.0 | 0.00 | 0.63 | 0.63 | 72 | 1009.8 |
| 20260502064804 | 86 | 58 | 15.0 | 19.0 | 0.00 | 0.63 | 0.63 | 71 | 1009.4 |
| 20260502064302 | 86 | 54 | 12.0 | 16.0 | 0.00 | 0.63 | 0.63 | 70 | 1009.8 |
| 20260502063759 | 86 | 62 | 14.0 | 19.0 | 0.00 | 0.63 | 0.63 | 70 | 1009.4 |
| 20260502063257 | 86 | 60 | 13.0 | 16.0 | 0.00 | 0.63 | 0.63 | 70 | 1009.4 |
| 20260502062753 | 86 | 50 | 9.0 | 12.0 | 0.00 | 0.63 | 0.63 | 70 | 1009.8 |
| 20260502062251 | 86 | 65 | 13.0 | 15.0 | 0.00 | 0.63 | 0.63 | 68 | 1009.4 |
| 20260502061749 | 87 | 69 | 16.0 | 23.0 | 0.00 | 0.63 | 0.63 | 68 | 1009.4 |
| 20260502061248 | 87 | 49 | 10.0 | 15.0 | 0.00 | 0.63 | 0.63 | 69 | 1009.4 |
| 20260502060747 | 86 | 72 | 15.0 | 19.0 | 0.00 | 0.63 | 0.63 | 69 | 1009.4 |
| 20260502060243 | 86 | 61 | 14.0 | 16.0 | 0.00 | 0.63 | 0.63 | 68 | 1009.4 |
| 20260502055741 | 86 | 62 | 12.0 | 16.0 | 0.00 | 0.63 | 0.63 | 69 | 1009.8 |
| 20260502055238 | 87 | 82 | 12.0 | 16.0 | 0.00 | 0.63 | 0.63 | 67 | 1009.8 |
| 20260502054737 | 87 | 79 | 11.0 | 15.0 | 0.00 | 0.63 | 0.63 | 68 | 1009.4 |
| 20260502054235 | 87 | 31 | 12.0 | 15.0 | 0.00 | 0.63 | 0.63 | 68 | 1009.4 |
| 20260502053732 | 87 | 84 | 12.0 | 14.0 | 0.00 | 0.63 | 0.63 | 69 | 1009.8 |
| 20260502053229 | 87 | 54 | 13.0 | 17.0 | 0.00 | 0.63 | 0.63 | 67 | 1009.8 |
| 20260502052727 | 87 | 56 | 15.0 | 17.0 | 0.00 | 0.63 | 0.63 | 67 | 1009.8 |
| 20260502052225 | 87 | 74 | 11.0 | 15.0 | 0.00 | 0.63 | 0.63 | 67 | 1009.8 |
| 20260502051723 | 87 | 52 | 13.0 | 16.0 | 0.00 | 0.63 | 0.63 | 67 | 1009.8 |
| 20260502051221 | 87 | 67 | 15.0 | 20.0 | 0.00 | 0.63 | 0.63 | 66 | 1009.8 |
| 20260502050717 | 87 | 63 | 13.0 | 18.0 | 0.00 | 0.63 | 0.63 | 67 | 1009.8 |
| 20260502050213 | 87 | 74 | 15.0 | 19.0 | 0.00 | 0.63 | 0.63 | 66 | 1010.1 |
| 20260502045710 | 87 | 56 | 14.0 | 19.0 | 0.00 | 0.63 | 0.63 | 66 | 1010.1 |
| 20260502045208 | 87 | 76 | 16.0 | 19.0 | 0.00 | 0.63 | 0.63 | 66 | 1010.1 |
| 20260502044704 | 87 | 81 | 13.0 | 17.0 | 0.00 | 0.63 | 0.63 | 67 | 1010.1 |
| 20260502044200 | 87 | 75 | 15.0 | 18.0 | 0.00 | 0.63 | 0.63 | 66 | 1010.1 |
| 20260502043658 | 87 | 69 | 15.0 | 19.0 | 0.00 | 0.63 | 0.63 | 66 | 1010.1 |
| 20260502043155 | 87 | 65 | 14.0 | 19.0 | 0.00 | 0.63 | 0.63 | 66 | 1010.5 |
| 20260502042655 | 88 | 78 | 11.0 | 15.0 | 0.00 | 0.63 | 0.63 | 66 | 1010.5 |
| 20260502042152 | 87 | 74 | 11.0 | 15.0 | 0.00 | 0.63 | 0.63 | 65 | 1010.5 |
| 20260502041650 | 87 | 68 | 13.0 | 17.0 | 0.00 | 0.63 | 0.63 | 65 | 1010.5 |
| 20260502041147 | 88 | 48 | 11.0 | 14.0 | 0.00 | 0.63 | 0.63 | 65 | 1010.5 |
| 20260502040643 | 88 | 76 | 8.0 | 12.0 | 0.00 | 0.63 | 0.63 | 66 | 1010.5 |
| 20260502040141 | 87 | 70 | 15.0 | 21.0 | 0.00 | 0.63 | 0.63 | 66 | 1010.5 |
| 20260502035637 | 87 | 60 | 13.0 | 17.0 | 0.00 | 0.63 | 0.63 | 66 | 1010.5 |
| 20260502035134 | 87 | 71 | 9.0 | 14.0 | 0.00 | 0.63 | 0.63 | 65 | 1010.8 |
| 20260502034632 | 87 | 56 | 11.0 | 14.0 | 0.00 | 0.63 | 0.63 | 65 | 1010.8 |
| 20260502034130 | 87 | 69 | 16.0 | 21.0 | 0.00 | 0.63 | 0.63 | 66 | 1010.8 |
| 20260502033627 | 86 | 80 | 13.0 | 17.0 | 0.00 | 0.63 | 0.63 | 68 | 1011.1 |
| 20260502033125 | 87 | 68 | 15.0 | 19.0 | 0.00 | 0.63 | 0.63 | 67 | 1011.1 |
| 20260502032621 | 87 | 64 | 11.0 | 17.0 | 0.00 | 0.63 | 0.63 | 67 | 1011.1 |
| 20260502032117 | 87 | 76 | 12.0 | 16.0 | 0.00 | 0.63 | 0.63 | 67 | 1011.1 |
| 20260502031615 | 87 | 54 | 13.0 | 17.0 | 0.00 | 0.63 | 0.63 | 67 | 1011.5 |
| 20260502031113 | 87 | 79 | 11.0 | 18.0 | 0.00 | 0.63 | 0.63 | 67 | 1011.5 |
| 20260502030612 | 88 | 67 | 13.0 | 19.0 | 0.00 | 0.63 | 0.63 | 67 | 1011.5 |
| 20260502030109 | 87 | 41 | 10.0 | 13.0 | 0.00 | 0.63 | 0.63 | 68 | 1011.5 |
| 20260502025606 | 87 | 75 | 10.0 | 13.0 | 0.00 | 0.63 | 0.63 | 68 | 1011.5 |
| 20260502025104 | 87 | 82 | 15.0 | 18.0 | 0.00 | 0.63 | 0.63 | 68 | 1011.8 |
| 20260502024601 | 87 | 82 | 9.0 | 11.0 | 0.00 | 0.63 | 0.63 | 69 | 1011.8 |
| 20260502024100 | 87 | 45 | 9.0 | 13.0 | 0.00 | 0.63 | 0.63 | 68 | 1011.8 |
| 20260502023557 | 87 | 71 | 14.0 | 18.0 | 0.00 | 0.63 | 0.63 | 67 | 1011.8 |
| 20260502023054 | 86 | 65 | 16.0 | 20.0 | 0.00 | 0.63 | 0.63 | 67 | 1011.8 |
| 20260502022551 | 87 | 87 | 9.0 | 11.0 | 0.00 | 0.63 | 0.63 | 66 | 1011.8 |
| 20260502022048 | 87 | 60 | 14.0 | 16.0 | 0.00 | 0.63 | 0.63 | 66 | 1011.8 |
| 20260502021545 | 87 | 68 | 12.0 | 17.0 | 0.00 | 0.63 | 0.63 | 68 | 1012.2 |
| 20260502021042 | 87 | 64 | 13.0 | 15.0 | 0.00 | 0.63 | 0.63 | 66 | 1011.8 |
| 20260502020540 | 87 | 85 | 11.0 | 15.0 | 0.00 | 0.63 | 0.63 | 67 | 1011.8 |
| 20260502020037 | 86 | 66 | 12.0 | 16.0 | 0.00 | 0.63 | 0.63 | 68 | 1012.2 |
| 20260502015535 | 87 | 70 | 10.0 | 15.0 | 0.00 | 0.63 | 0.63 | 67 | 1011.8 |
| 20260502015031 | 87 | 77 | 9.0 | 12.0 | 0.00 | 0.63 | 0.63 | 68 | 1012.2 |
| 20260502014528 | 87 | 75 | 13.0 | 16.0 | 0.00 | 0.63 | 0.63 | 67 | 1012.2 |
| 20260502014025 | 86 | 73 | 12.0 | 15.0 | 0.00 | 0.63 | 0.63 | 69 | 1012.2 |
| 20260502013520 | 87 | 70 | 15.0 | 19.0 | 0.00 | 0.63 | 0.63 | 68 | 1011.8 |
| 20260502013017 | 86 | 55 | 13.0 | 16.0 | 0.00 | 0.63 | 0.63 | 68 | 1012.2 |
| 20260502012514 | 87 | 40 | 11.0 | 16.0 | 0.00 | 0.63 | 0.63 | 68 | 1012.2 |
| 20260502012012 | 87 | 89 | 13.0 | 17.0 | 0.00 | 0.63 | 0.63 | 68 | 1012.2 |
| 20260502011508 | 87 | 55 | 12.0 | 15.0 | 0.00 | 0.63 | 0.63 | 69 | 1012.2 |
| 20260502011004 | 86 | 85 | 14.0 | 16.0 | 0.00 | 0.63 | 0.63 | 69 | 1012.2 |
| 20260502010502 | 86 | 57 | 13.0 | 15.0 | 0.00 | 0.63 | 0.63 | 69 | 1012.2 |
| 20260502005957 | 86 | 54 | 13.0 | 16.0 | 0.00 | 0.63 | 0.63 | 70 | 1012.2 |
| 20260502005456 | 85 | 67 | 12.0 | 17.0 | 0.00 | 0.63 | 0.63 | 71 | 1012.2 |
| 20260502004953 | 86 | 45 | 11.0 | 14.0 | 0.00 | 0.63 | 0.63 | 70 | 1012.2 |
| 20260502004449 | 85 | 90 | 6.0 | 10.0 | 0.00 | 0.63 | 0.63 | 70 | 1012.2 |
| 20260502003946 | 85 | 56 | 11.0 | 14.0 | 0.00 | 0.63 | 0.63 | 72 | 1012.5 |
| 20260502003444 | 85 | 52 | 14.0 | 18.0 | 0.00 | 0.63 | 0.63 | 72 | 1012.5 |
| 20260502002939 | 86 | 54 | 12.0 | 16.0 | 0.00 | 0.63 | 0.63 | 71 | 1012.5 |
| 20260502002437 | 86 | 88 | 15.0 | 18.0 | 0.00 | 0.63 | 0.63 | 69 | 1012.5 |
| 20260502001934 | 85 | 79 | 7.0 | 11.0 | 0.00 | 0.63 | 0.63 | 72 | 1012.5 |
| 20260502001432 | 85 | 73 | 15.0 | 23.0 | 0.00 | 0.63 | 0.63 | 72 | 1012.5 |
| 20260502000929 | 85 | 82 | 13.0 | 17.0 | 0.00 | 0.63 | 0.63 | 71 | 1012.5 |
| 20260502000428 | 85 | 63 | 9.0 | 12.0 | 0.00 | 0.63 | 0.63 | 72 | 1012.2 |
| 20260501235923 | 85 | 76 | 15.0 | 21.0 | 0.00 | 0.63 | 0.63 | 71 | 1012.2 |
| 20260501235419 | 85 | 61 | 17.0 | 19.0 | 0.00 | 0.63 | 0.63 | 72 | 1012.2 |
| 20260501234914 | 85 | 70 | 12.0 | 17.0 | 0.00 | 0.63 | 0.63 | 72 | 1012.2 |
| 20260501234412 | 85 | 89 | 10.0 | 13.0 | 0.00 | 0.63 | 0.63 | 71 | 1012.5 |
| 20260501233910 | 85 | 55 | 14.0 | 18.0 | 0.00 | 0.63 | 0.63 | 72 | 1012.2 |
| 20260501233407 | 85 | 63 | 13.0 | 15.0 | 0.00 | 0.63 | 0.63 | 72 | 1012.2 |
| 20260501232903 | 85 | 60 | 13.0 | 16.0 | 0.00 | 0.63 | 0.63 | 73 | 1012.2 |
| 20260501232400 | 84 | 64 | 10.0 | 15.0 | 0.00 | 0.63 | 0.63 | 73 | 1012.2 |
| 20260501231858 | 84 | 70 | 13.0 | 18.0 | 0.00 | 0.63 | 0.63 | 74 | 1012.2 |
| 20260501231355 | 84 | 53 | 13.0 | 16.0 | 0.00 | 0.63 | 0.63 | 74 | 1012.2 |
| 20260501230854 | 84 | 57 | 14.0 | 19.0 | 0.00 | 0.63 | 0.63 | 74 | 1012.2 |
| 20260501230353 | 84 | 69 | 13.0 | 16.0 | 0.00 | 0.63 | 0.63 | 74 | 1012.2 |
| 20260501225849 | 84 | 66 | 12.0 | 17.0 | 0.00 | 0.63 | 0.63 | 74 | 1012.2 |
| 20260501225347 | 84 | 72 | 13.0 | 16.0 | 0.00 | 0.63 | 0.63 | 75 | 1012.2 |
| 20260501224843 | 84 | 58 | 11.0 | 17.0 | 0.00 | 0.63 | 0.63 | 75 | 1012.2 |
| 20260501224340 | 84 | 70 | 14.0 | 19.0 | 0.00 | 0.63 | 0.63 | 75 | 1012.2 |
| 20260501223837 | 84 | 67 | 10.0 | 13.0 | 0.00 | 0.63 | 0.63 | 75 | 1012.2 |
| 20260501223333 | 84 | 88 | 11.0 | 13.0 | 0.00 | 0.63 | 0.63 | 76 | 1012.2 |
| 20260501222828 | 83 | 64 | 12.0 | 16.0 | 0.00 | 0.63 | 0.63 | 76 | 1012.2 |
| 20260501222326 | 83 | 61 | 11.0 | 13.0 | 0.00 | 0.63 | 0.63 | 76 | 1012.2 |
| 20260501221823 | 83 | 63 | 13.0 | 21.0 | 0.00 | 0.63 | 0.63 | 77 | 1012.2 |
| 20260501221320 | 83 | 75 | 7.0 | 9.0 | 0.00 | 0.63 | 0.63 | 79 | 1012.2 |
| 20260501220818 | 82 | 70 | 10.0 | 13.0 | 0.00 | 0.63 | 0.63 | 80 | 1012.2 |
| 20260501220315 | 82 | 66 | 9.0 | 11.0 | 0.00 | 0.63 | 0.63 | 81 | 1012.2 |
| 20260501215812 | 81 | 58 | 9.0 | 12.0 | 0.00 | 0.63 | 0.63 | 81 | 1012.2 |
| 20260501215307 | 82 | 61 | 8.0 | 10.0 | 0.00 | 0.63 | 0.63 | 80 | 1012.2 |
| 20260501214803 | 82 | 73 | 9.0 | 12.0 | 0.00 | 0.63 | 0.63 | 80 | 1012.2 |
| 20260501214259 | 82 | 73 | 7.0 | 8.0 | 0.00 | 0.63 | 0.63 | 81 | 1012.2 |
| 20260501213755 | 81 | 65 | 10.0 | 12.0 | 0.00 | 0.63 | 0.63 | 81 | 1012.2 |
| 20260501213251 | 81 | 66 | 8.0 | 11.0 | 0.00 | 0.63 | 0.63 | 82 | 1012.2 |
| 20260501212747 | 81 | 65 | 7.0 | 9.0 | 0.00 | 0.63 | 0.63 | 82 | 1012.2 |
| 20260501212244 | 80 | 60 | 6.0 | 8.0 | 0.00 | 0.63 | 0.63 | 83 | 1012.2 |
| 20260501211741 | 80 | 49 | 7.0 | 9.0 | 0.00 | 0.63 | 0.63 | 84 | 1012.2 |
| 20260501211238 | 80 | 54 | 5.0 | 7.0 | 0.00 | 0.63 | 0.63 | 84 | 1012.2 |
| 20260501210735 | 80 | 57 | 5.0 | 6.0 | 0.00 | 0.63 | 0.63 | 85 | 1011.8 |
| 20260501210232 | 79 | 59 | 6.0 | 7.0 | 0.00 | 0.63 | 0.63 | 85 | 1012.2 |
| 20260501205728 | 79 | 63 | 6.0 | 7.0 | 0.00 | 0.63 | 0.63 | 85 | 1011.8 |
| 20260501205225 | 79 | 70 | 5.0 | 7.0 | 0.00 | 0.63 | 0.63 | 85 | 1011.8 |
| 20260501204722 | 79 | 59 | 6.0 | 7.0 | 0.00 | 0.63 | 0.63 | 85 | 1011.8 |
| 20260501204219 | 79 | 57 | 6.0 | 7.0 | 0.00 | 0.63 | 0.63 | 85 | 1011.8 |
| 20260501203715 | 79 | 57 | 6.0 | 7.0 | 0.00 | 0.63 | 0.63 | 85 | 1011.8 |
| 20260501203213 | 80 | 56 | 7.0 | 10.0 | 0.00 | 0.63 | 0.63 | 85 | 1011.8 |
| 20260501202709 | 80 | 50 | 8.0 | 10.0 | 0.00 | 0.63 | 0.63 | 85 | 1011.8 |
| 20260501202206 | 80 | 55 | 8.0 | 10.0 | 0.00 | 0.63 | 0.63 | 85 | 1011.8 |
| 20260501201703 | 80 | 43 | 6.0 | 7.0 | 0.00 | 0.63 | 0.63 | 86 | 1011.8 |
| 20260501201200 | 80 | 61 | 8.0 | 10.0 | 0.00 | 0.63 | 0.63 | 86 | 1011.8 |
| 20260501200656 | 80 | 48 | 6.0 | 7.0 | 0.00 | 0.63 | 0.63 | 86 | 1011.5 |
| 20260501200154 | 79 | 49 | 6.0 | 8.0 | 0.00 | 0.63 | 0.63 | 86 | 1011.5 |
| 20260501195651 | 79 | 54 | 5.0 | 6.0 | 0.00 | 0.63 | 0.63 | 86 | 1011.5 |
| 20260501195147 | 79 | 53 | 6.0 | 8.0 | 0.00 | 0.63 | 0.63 | 86 | 1011.5 |
| 20260501194643 | 79 | 45 | 5.0 | 6.0 | 0.00 | 0.63 | 0.63 | 86 | 1011.5 |
| 20260501194138 | 79 | 50 | 6.0 | 8.0 | 0.00 | 0.63 | 0.63 | 87 | 1011.5 |
| 20260501193636 | 79 | 57 | 5.0 | 6.0 | 0.00 | 0.63 | 0.63 | 87 | 1011.5 |
| 20260501193135 | 79 | 81 | 4.0 | 5.0 | 0.00 | 0.63 | 0.63 | 87 | 1011.5 |
| 20260501192631 | 79 | 77 | 5.0 | 6.0 | 0.00 | 0.63 | 0.63 | 87 | 1011.5 |
| 20260501192129 | 79 | 109 | 4.0 | 4.0 | 0.00 | 0.63 | 0.63 | 86 | 1011.5 |
| 20260501191626 | 79 | 75 | 4.0 | 6.0 | 0.00 | 0.63 | 0.63 | 86 | 1011.5 |
| 20260501191123 | 79 | 60 | 6.0 | 8.0 | 0.00 | 0.63 | 0.63 | 86 | 1011.5 |
| 20260501190619 | 79 | 61 | 6.0 | 8.0 | 0.00 | 0.63 | 0.63 | 86 | 1011.5 |
| 20260501190114 | 79 | 49 | 5.0 | 6.0 | 0.00 | 0.63 | 0.63 | 87 | 1011.5 |
| 20260501185611 | 79 | 49 | 5.0 | 8.0 | 0.00 | 0.63 | 0.63 | 87 | 1011.1 |
| 20260501185107 | 79 | 53 | 5.0 | 6.0 | 0.00 | 0.63 | 0.63 | 87 | 1011.1 |
| 20260501184603 | 79 | 53 | 5.0 | 6.0 | 0.00 | 0.63 | 0.63 | 87 | 1011.1 |
| 20260501184058 | 79 | 53 | 3.0 | 4.0 | 0.00 | 0.63 | 0.63 | 87 | 1011.5 |
| 20260501183555 | 79 | 62 | 4.0 | 6.0 | 0.00 | 0.63 | 0.63 | 87 | 1011.5 |
| 20260501183051 | 79 | 78 | 2.0 | 3.0 | 0.00 | 0.63 | 0.63 | 87 | 1011.5 |
| 20260501182548 | 79 | 66 | 6.0 | 7.0 | 0.00 | 0.63 | 0.63 | 87 | 1011.5 |
| 20260501182045 | 79 | 62 | 6.0 | 9.0 | 0.00 | 0.63 | 0.63 | 88 | 1011.5 |
| 20260501181542 | 79 | 88 | 5.0 | 7.0 | 0.00 | 0.63 | 0.63 | 88 | 1011.5 |
| 20260501181039 | 79 | 81 | 5.0 | 7.0 | 0.00 | 0.63 | 0.63 | 88 | 1011.5 |
| 20260501180537 | 79 | 75 | 7.0 | 10.0 | 0.00 | 0.63 | 0.63 | 89 | 1011.5 |
| 20260501180032 | 78 | 95 | 4.0 | 5.0 | 0.00 | 0.63 | 0.63 | 89 | 1011.5 |
| 20260501175529 | 78 | 100 | 6.0 | 8.0 | 0.00 | 0.63 | 0.63 | 90 | 1011.5 |
| 20260501175026 | 78 | 85 | 5.0 | 6.0 | 0.00 | 0.63 | 0.63 | 90 | 1011.5 |
| 20260501174523 | 78 | 81 | 5.0 | 7.0 | 0.00 | 0.63 | 0.63 | 90 | 1011.5 |
| 20260501174021 | 78 | 59 | 4.0 | 6.0 | 0.00 | 0.63 | 0.63 | 90 | 1011.5 |
| 20260501173518 | 78 | 131 | 0.0 | 0.0 | 0.00 | 0.63 | 0.63 | 90 | 1011.5 |
| 20260501173015 | 78 | 131 | 0.0 | 0.0 | 0.00 | 0.63 | 0.63 | 90 | 1011.8 |
| 20260501172510 | 78 | 131 | 0.0 | 0.0 | 0.00 | 0.63 | 0.63 | 90 | 1011.5 |
| 20260501172006 | 77 | 131 | 0.0 | 0.0 | 0.00 | 0.63 | 0.63 | 90 | 1011.8 |
| 20260501171502 | 77 | 113 | 4.0 | 6.0 | 0.00 | 0.59 | 0.59 | 90 | 1012.2 |
| 20260501170959 | 77 | 114 | 8.0 | 10.0 | 1.42 | 0.49 | 0.49 | 90 | 1012.2 |
| 20260501170455 | 77 | 104 | 8.0 | 11.0 | 1.42 | 0.33 | 0.33 | 90 | 1012.2 |
| 20260501165953 | 78 | 94 | 11.0 | 15.0 | 0.94 | 0.26 | 0.26 | 90 | 1011.8 |
| 20260501165451 | 78 | 103 | 6.0 | 9.0 | 0.00 | 0.18 | 0.18 | 90 | 1012.2 |
| 20260501164948 | 78 | 98 | 5.0 | 7.0 | 0.00 | 0.16 | 0.16 | 89 | 1011.8 |
| 20260501164446 | 77 | 93 | 7.0 | 10.0 | 0.00 | 0.11 | 0.11 | 89 | 1011.8 |
| 20260501163942 | 78 | 73 | 11.0 | 14.0 | 0.00 | 0.10 | 0.10 | 89 | 1011.8 |
| 20260501163438 | 78 | 87 | 10.0 | 12.0 | 0.00 | 0.09 | 0.09 | 89 | 1011.8 |
| 20260501162935 | 78 | 80 | 12.0 | 18.0 | 0.00 | 0.07 | 0.07 | 88 | 1011.8 |
| 20260501162432 | 78 | 85 | 6.0 | 9.0 | 0.00 | 0.06 | 0.06 | 88 | 1012.2 |
| 20260501161929 | 78 | 65 | 8.0 | 10.0 | 0.00 | 0.06 | 0.06 | 88 | 1012.2 |
| 20260501161426 | 78 | 46 | 7.0 | 9.0 | 0.00 | 0.06 | 0.06 | 88 | 1011.8 |
| 20260501160922 | 79 | 58 | 6.0 | 8.0 | 0.00 | 0.06 | 0.06 | 88 | 1011.8 |
| 20260501160419 | 79 | 57 | 9.0 | 11.0 | 0.00 | 0.06 | 0.06 | 89 | 1011.8 |
| 20260501155917 | 79 | 50 | 7.0 | 10.0 | 0.00 | 0.06 | 0.06 | 89 | 1012.2 |
| 20260501155414 | 79 | 58 | 5.0 | 6.0 | 0.00 | 0.06 | 0.06 | 89 | 1012.2 |
| 20260501154910 | 79 | 46 | 4.0 | 4.0 | 0.00 | 0.06 | 0.06 | 89 | 1012.2 |
| 20260501154408 | 79 | 72 | 3.0 | 4.0 | 0.00 | 0.06 | 0.06 | 89 | 1012.2 |
| 20260501153904 | 79 | 67 | 4.0 | 5.0 | 0.00 | 0.06 | 0.06 | 89 | 1012.2 |
| 20260501153402 | 79 | 50 | 4.0 | 4.0 | 0.00 | 0.06 | 0.06 | 89 | 1012.5 |
| 20260501152857 | 78 | 50 | 3.0 | 4.0 | 0.00 | 0.06 | 0.06 | 89 | 1012.5 |
| 20260501152355 | 78 | 50 | 4.0 | 5.0 | 0.00 | 0.06 | 0.06 | 89 | 1012.5 |
| 20260501151853 | 78 | 50 | 4.0 | 4.0 | 0.00 | 0.06 | 0.06 | 89 | 1012.5 |
| 20260501151348 | 78 | 49 | 6.0 | 7.0 | 0.00 | 0.06 | 0.06 | 89 | 1012.5 |
| 20260501150845 | 78 | 48 | 5.0 | 7.0 | 0.00 | 0.06 | 0.06 | 89 | 1012.5 |
| 20260501150341 | 78 | 54 | 5.0 | 6.0 | 0.00 | 0.06 | 0.06 | 89 | 1012.5 |
| 20260501145837 | 78 | 71 | 6.0 | 7.0 | 0.00 | 0.06 | 0.06 | 89 | 1012.5 |
| 20260501145335 | 78 | 79 | 4.0 | 6.0 | 0.00 | 0.06 | 0.06 | 89 | 1012.5 |
| 20260501144832 | 78 | 74 | 6.0 | 8.0 | 0.00 | 0.06 | 0.06 | 89 | 1012.5 |
| 20260501144327 | 78 | 68 | 6.0 | 8.0 | 0.00 | 0.06 | 0.06 | 89 | 1012.8 |
| 20260501143824 | 78 | 72 | 10.0 | 11.0 | 0.00 | 0.06 | 0.06 | 89 | 1012.8 |
| 20260501143321 | 78 | 78 | 11.0 | 13.0 | 0.00 | 0.05 | 0.05 | 89 | 1012.8 |
| 20260501142817 | 78 | 69 | 11.0 | 13.0 | 0.00 | 0.04 | 0.04 | 89 | 1012.8 |
| 20260501142314 | 79 | 77 | 8.0 | 11.0 | 0.00 | 0.04 | 0.04 | 89 | 1012.8 |